,,,PA_Meas_PMT16A,,PR_Meas_QMR101_102,,RH_Meas_QMH101,,SR_Meas_QMS101,,TA_Meas_QMH101,,GenWind,,GenWind,
date,time,status,PA,status,PR,status,RH,status,SR,status,TA,status,DirAvg,status,SpdAvg,
2014-06-23, 00:00:04,VALID,1011.32,VALID,0,INVALID,110.352,VALID,0,VALID,25.2337,VALID,160,VALID,0.270703,
2014-06-23, 00:01:04,VALID,1011.31,VALID,0,INVALID,110.39,VALID,0,VALID,25.2337,VALID,160,VALID,0.107813,
2014-06-23, 00:02:04,VALID,1011.35,VALID,0,INVALID,110.36,VALID,0,VALID,25.2532,VALID,160,VALID,0,
2014-06-23, 00:03:04,VALID,1011.33,VALID,0,INVALID,110.329,VALID,0,VALID,25.2746,VALID,160,VALID,0.00351562,
2014-06-23, 00:04:04,VALID,1011.31,VALID,0,INVALID,110.329,VALID,0,VALID,25.2727,VALID,160,VALID,0.1625,
2014-06-23, 00:05:04,VALID,1011.27,VALID,0,INVALID,110.375,VALID,0,VALID,25.2727,VALID,160,VALID,0,
2014-06-23, 00:06:04,VALID,1011.24,VALID,0,INVALID,110.421,VALID,0,VALID,25.2727,VALID,160,VALID,0,
2014-06-23, 00:07:04,VALID,1011.22,VALID,0,INVALID,110.459,VALID,0,VALID,25.2532,VALID,160,VALID,0,
2014-06-23, 00:08:04,VALID,1011.2,VALID,0,INVALID,110.467,VALID,0,VALID,25.2337,VALID,160,VALID,0,
2014-06-23, 00:09:04,VALID,1011.15,VALID,0,INVALID,110.467,VALID,0,VALID,25.2142,VALID,160,VALID,0,
2014-06-23, 00:10:04,VALID,1011.15,VALID,0,INVALID,110.49,VALID,0,VALID,25.1752,VALID,160,VALID,0,
2014-06-23, 00:11:04,VALID,1011.14,VALID,0,INVALID,110.49,VALID,0,VALID,25.1966,VALID,160,VALID,0,
2014-06-23, 00:12:04,VALID,1011.16,VALID,0,INVALID,110.49,VALID,0,VALID,25.1752,VALID,160,VALID,0,
2014-06-23, 00:13:04,VALID,1011.17,VALID,0,INVALID,110.436,VALID,0,VALID,25.1947,VALID,160,VALID,0,
2014-06-23, 00:14:04,VALID,1011.17,VALID,0,INVALID,110.451,VALID,0,VALID,25.2142,VALID,160,VALID,0,
2014-06-23, 00:15:04,VALID,1011.15,VALID,0,INVALID,110.451,VALID,0,VALID,25.2941,VALID,160,VALID,0.310547,
2014-06-23, 00:16:04,VALID,1011.16,VALID,0,INVALID,110.451,VALID,0,VALID,25.2922,VALID,160,VALID,0.408594,
2014-06-23, 00:17:04,VALID,1011.12,VALID,0,INVALID,110.429,VALID,0,VALID,25.3117,VALID,160,VALID,0.490234,
2014-06-23, 00:18:04,VALID,1011.11,VALID,0,INVALID,110.459,VALID,0,VALID,25.3117,VALID,160,VALID,0.236719,
2014-06-23, 00:19:04,VALID,1011.09,VALID,0,INVALID,110.49,VALID,0.112112,VALID,25.2922,VALID,160,VALID,0.267578,
2014-06-23, 00:20:04,VALID,1011.07,VALID,0,INVALID,110.52,VALID,0,VALID,25.2922,VALID,160,VALID,0.163281,
2014-06-23, 00:21:04,VALID,1011.08,VALID,0,INVALID,110.52,VALID,0,VALID,25.2941,VALID,160,VALID,0.0492188,
2014-06-23, 00:22:04,VALID,1011.08,VALID,0,INVALID,110.52,VALID,0,VALID,25.2727,VALID,160,VALID,0,
2014-06-23, 00:23:04,VALID,1011.06,VALID,0,INVALID,110.535,VALID,0,VALID,25.2941,VALID,160,VALID,0,
2014-06-23, 00:24:04,VALID,1011.06,VALID,0,INVALID,110.528,VALID,0,VALID,25.2727,VALID,160,VALID,0,
2014-06-23, 00:25:04,VALID,1011.06,VALID,0,INVALID,110.558,VALID,0,VALID,25.2941,VALID,160,VALID,0,
2014-06-23, 00:26:04,VALID,1011.05,VALID,0,INVALID,110.528,VALID,0,VALID,25.2727,VALID,160,VALID,0,
2014-06-23, 00:27:04,VALID,1011.07,VALID,0,INVALID,110.558,VALID,0,VALID,25.2532,VALID,160,VALID,0,
2014-06-23, 00:28:04,VALID,1011.08,VALID,0,INVALID,110.581,VALID,0,VALID,25.2727,VALID,160,VALID,0,
2014-06-23, 00:29:04,VALID,1011.08,VALID,0,INVALID,110.566,VALID,0,VALID,25.2337,VALID,160,VALID,0,
2014-06-23, 00:30:04,VALID,1011.08,VALID,0,INVALID,110.566,VALID,0,VALID,25.2337,VALID,160,VALID,0,
2014-06-23, 00:31:04,VALID,1011.07,VALID,0,INVALID,110.558,VALID,0,VALID,25.2337,VALID,160,VALID,0,
2014-06-23, 00:32:04,VALID,1011.09,VALID,0,INVALID,110.558,VALID,0,VALID,25.2142,VALID,160,VALID,0,
2014-06-23, 00:33:04,VALID,1011.06,VALID,0,INVALID,110.581,VALID,0,VALID,25.1947,VALID,160,VALID,0,
2014-06-23, 00:34:04,VALID,1011.05,VALID,0,INVALID,110.619,VALID,0,VALID,25.1947,VALID,160,VALID,0,
2014-06-23, 00:35:04,VALID,1011.02,VALID,0,INVALID,110.627,VALID,0,VALID,25.2161,VALID,160,VALID,0,
2014-06-23, 00:36:04,VALID,1010.99,VALID,0,INVALID,110.627,VALID,0,VALID,25.2142,VALID,160,VALID,0.00351562,
2014-06-23, 00:37:04,VALID,1010.97,VALID,0,INVALID,110.627,VALID,0,VALID,25.2337,VALID,150,VALID,1.19727,
2014-06-23, 00:38:04,VALID,1010.97,VALID,0,INVALID,110.612,VALID,0,VALID,25.2746,VALID,145,VALID,0.995703,
2014-06-23, 00:39:04,VALID,1010.96,VALID,0,INVALID,110.612,VALID,0,VALID,25.3136,VALID,145,VALID,1.00937,
2014-06-23, 00:40:04,VALID,1010.96,VALID,0,INVALID,110.642,VALID,0,VALID,25.2727,VALID,145,VALID,0.802734,
2014-06-23, 00:41:04,VALID,1010.92,VALID,0,INVALID,110.65,VALID,0,VALID,25.2727,VALID,145,VALID,0.876953,
2014-06-23, 00:42:04,VALID,1010.88,VALID,0,INVALID,110.688,VALID,0,VALID,25.2727,VALID,145,VALID,0.963672,
2014-06-23, 00:43:04,VALID,1010.83,VALID,0,INVALID,110.703,VALID,0,VALID,25.2727,VALID,145,VALID,0.894531,
2014-06-23, 00:44:04,VALID,1010.79,VALID,0,INVALID,110.673,VALID,0,VALID,25.2727,VALID,145,VALID,0.633984,
2014-06-23, 00:45:04,VALID,1010.76,VALID,0,INVALID,110.673,VALID,0,VALID,25.2922,VALID,145,VALID,0.554688,
2014-06-23, 00:46:04,VALID,1010.72,VALID,0,INVALID,110.673,VALID,0,VALID,25.2727,VALID,146,VALID,0.544922,
2014-06-23, 00:47:04,VALID,1010.7,VALID,0,INVALID,110.68,VALID,0,VALID,25.2727,VALID,145,VALID,1.20156,
2014-06-23, 00:48:04,VALID,1010.63,VALID,0,INVALID,110.688,VALID,0,VALID,25.2727,VALID,145,VALID,1.22734,
2014-06-23, 00:49:04,VALID,1010.57,VALID,0,INVALID,110.68,VALID,0,VALID,25.2727,VALID,145,VALID,1.04648,
2014-06-23, 00:50:04,VALID,1010.52,VALID,0,INVALID,110.665,VALID,0,VALID,25.2727,VALID,145,VALID,1.02891,
2014-06-23, 00:51:04,VALID,1010.48,VALID,0,INVALID,110.711,VALID,0,VALID,25.2532,VALID,145,VALID,1.19805,
2014-06-23, 00:52:04,VALID,1010.46,VALID,0,INVALID,110.673,VALID,0,VALID,25.2532,VALID,145,VALID,1.35625,
2014-06-23, 00:53:04,VALID,1010.45,VALID,0,INVALID,110.665,VALID,0,VALID,25.2746,VALID,128,VALID,1.19219,
2014-06-23, 00:54:04,VALID,1010.4,VALID,0,INVALID,110.68,VALID,0,VALID,25.2337,VALID,128,VALID,1.10781,
2014-06-23, 00:55:04,VALID,1010.39,VALID,0,INVALID,110.673,VALID,0,VALID,25.2337,VALID,128,VALID,0.974609,
2014-06-23, 00:56:04,VALID,1010.36,VALID,0,INVALID,110.657,VALID,0,VALID,25.2551,VALID,128,VALID,0.737109,
2014-06-23, 00:57:04,VALID,1010.34,VALID,0,INVALID,110.665,VALID,0,VALID,25.2356,VALID,128,VALID,1.02852,
2014-06-23, 00:58:04,VALID,1010.3,VALID,0,INVALID,110.673,VALID,0,VALID,25.2142,VALID,128,VALID,0.572656,
2014-06-23, 00:59:04,VALID,1010.28,VALID,0,INVALID,110.665,VALID,0,VALID,25.2551,VALID,128,VALID,0.914844,
2014-06-23, 01:00:04,VALID,1010.25,VALID,0,INVALID,110.673,VALID,0,VALID,25.2337,VALID,128,VALID,0.94375,
2014-06-23, 01:01:04,VALID,1010.22,VALID,0,INVALID,110.711,VALID,0,VALID,25.2532,VALID,128,VALID,0.85,
2014-06-23, 01:02:04,VALID,1010.23,VALID,0,INVALID,110.68,VALID,0,VALID,25.2532,VALID,104,VALID,1.01602,
2014-06-23, 01:03:04,VALID,1010.24,VALID,0,INVALID,110.695,VALID,0,VALID,25.2337,VALID,104,VALID,0.45625,
2014-06-23, 01:04:04,VALID,1010.27,VALID,0,INVALID,110.657,VALID,0,VALID,25.2746,VALID,101,VALID,0.920703,
2014-06-23, 01:05:04,VALID,1010.29,VALID,0,INVALID,110.665,VALID,0,VALID,25.2727,VALID,101,VALID,0.148828,
2014-06-23, 01:06:04,VALID,1010.31,VALID,0,INVALID,110.619,VALID,0,VALID,25.2532,VALID,101,VALID,0,
2014-06-23, 01:07:04,VALID,1010.32,VALID,0,INVALID,110.627,VALID,0,VALID,25.2532,VALID,101,VALID,0.371094,
2014-06-23, 01:08:04,VALID,1010.35,VALID,0,INVALID,110.627,VALID,0,VALID,25.2142,VALID,101,VALID,0.347266,
2014-06-23, 01:09:04,VALID,1010.38,VALID,0,INVALID,110.612,VALID,0,VALID,25.2142,VALID,101,VALID,0.353516,
2014-06-23, 01:10:04,VALID,1010.39,VALID,0,INVALID,110.619,VALID,0,VALID,25.2142,VALID,101,VALID,0.217578,
2014-06-23, 01:11:04,VALID,1010.36,VALID,0,INVALID,110.604,VALID,0,VALID,25.2142,VALID,101,VALID,0.291016,
2014-06-23, 01:12:04,VALID,1010.33,VALID,0,INVALID,110.627,VALID,0,VALID,25.2142,VALID,101,VALID,0,
2014-06-23, 01:13:04,VALID,1010.33,VALID,0,INVALID,110.612,VALID,0,VALID,25.2142,VALID,101,VALID,0,
2014-06-23, 01:14:04,VALID,1010.29,VALID,0,INVALID,110.612,VALID,0,VALID,25.1947,VALID,101,VALID,0.0835937,
2014-06-23, 01:15:04,VALID,1010.27,VALID,0,INVALID,110.619,VALID,0,VALID,25.1771,VALID,101,VALID,0,
2014-06-23, 01:16:04,VALID,1010.27,VALID,0,INVALID,110.596,VALID,0,VALID,25.1362,VALID,101,VALID,0,
2014-06-23, 01:17:04,VALID,1010.27,VALID,0,INVALID,110.558,VALID,0,VALID,25.0973,VALID,101,VALID,0.0792969,
2014-06-23, 01:18:04,VALID,1010.28,VALID,0,INVALID,110.558,VALID,0,VALID,25.0778,VALID,101,VALID,0,
2014-06-23, 01:19:04,VALID,1010.27,VALID,0,INVALID,110.566,VALID,0,VALID,25.0583,VALID,101,VALID,0,
2014-06-23, 01:20:04,VALID,1010.29,VALID,0,INVALID,110.589,VALID,0,VALID,25.0407,VALID,101,VALID,0,
2014-06-23, 01:21:04,VALID,1010.24,VALID,0,INVALID,110.596,VALID,0,VALID,24.9998,VALID,101,VALID,0,
2014-06-23, 01:22:04,VALID,1010.25,VALID,0,INVALID,110.604,VALID,0,VALID,24.9803,VALID,101,VALID,0,
2014-06-23, 01:23:04,VALID,1010.25,VALID,0,INVALID,110.604,VALID,0,VALID,24.9608,VALID,101,VALID,0,
2014-06-23, 01:24:04,VALID,1010.23,VALID,0,INVALID,110.627,VALID,0,VALID,24.9432,VALID,101,VALID,0,
2014-06-23, 01:25:04,VALID,1010.27,VALID,0,INVALID,110.65,VALID,0,VALID,24.9023,VALID,101,VALID,0,
2014-06-23, 01:26:04,VALID,1010.27,VALID,0,INVALID,110.665,VALID,0,VALID,24.8828,VALID,101,VALID,0,
2014-06-23, 01:27:04,VALID,1010.25,VALID,0,INVALID,110.718,VALID,0,VALID,24.8828,VALID,101,VALID,0.345703,
2014-06-23, 01:28:04,VALID,1010.29,VALID,0,INVALID,110.718,VALID,0,VALID,24.8633,VALID,101,VALID,0.250391,
2014-06-23, 01:29:04,VALID,1010.3,VALID,0,INVALID,110.734,VALID,0,VALID,24.8633,VALID,101,VALID,0.260938,
2014-06-23, 01:30:04,VALID,1010.33,VALID,0,INVALID,110.711,VALID,0,VALID,24.8438,VALID,101,VALID,0.404297,
2014-06-23, 01:31:04,VALID,1010.31,VALID,0,INVALID,110.772,VALID,0,VALID,24.8244,VALID,101,VALID,0.38125,
2014-06-23, 01:32:04,VALID,1010.35,VALID,0,INVALID,110.756,VALID,0,VALID,24.7854,VALID,101,VALID,0.391797,
2014-06-23, 01:33:04,VALID,1010.35,VALID,0,INVALID,110.749,VALID,0,VALID,24.7854,VALID,101,VALID,0.282031,
2014-06-23, 01:34:04,VALID,1010.34,VALID,0,INVALID,110.779,VALID,0,VALID,24.7659,VALID,101,VALID,0,
2014-06-23, 01:35:04,VALID,1010.32,VALID,0,INVALID,110.764,VALID,0,VALID,24.7872,VALID,101,VALID,0,
2014-06-23, 01:36:04,VALID,1010.32,VALID,0,INVALID,110.764,VALID,0,VALID,24.7464,VALID,101,VALID,0.00429688,
2014-06-23, 01:37:04,VALID,1010.28,VALID,0,INVALID,110.795,VALID,0,VALID,24.7483,VALID,101,VALID,0,
2014-06-23, 01:38:04,VALID,1010.26,VALID,0,INVALID,110.802,VALID,0,VALID,24.7464,VALID,101,VALID,0,
2014-06-23, 01:39:04,VALID,1010.24,VALID,0,INVALID,110.772,VALID,0,VALID,24.7464,VALID,101,VALID,0,
2014-06-23, 01:40:04,VALID,1010.2,VALID,0,INVALID,110.817,VALID,0,VALID,24.7464,VALID,101,VALID,0,
2014-06-23, 01:41:04,VALID,1010.18,VALID,0,INVALID,110.787,VALID,0,VALID,24.7269,VALID,101,VALID,0,
2014-06-23, 01:42:04,VALID,1010.19,VALID,0,INVALID,110.772,VALID,0,VALID,24.7269,VALID,101,VALID,0,
2014-06-23, 01:43:04,VALID,1010.16,VALID,0,INVALID,110.81,VALID,0,VALID,24.7269,VALID,101,VALID,0,
2014-06-23, 01:44:04,VALID,1010.16,VALID,0,INVALID,110.81,VALID,0,VALID,24.7074,VALID,101,VALID,0,
2014-06-23, 01:45:04,VALID,1010.11,VALID,0,INVALID,110.817,VALID,0,VALID,24.7093,VALID,101,VALID,0.192969,
2014-06-23, 01:46:04,VALID,1010.1,VALID,0,INVALID,110.802,VALID,0,VALID,24.6879,VALID,101,VALID,0.344141,
2014-06-23, 01:47:04,VALID,1010.11,VALID,0,INVALID,110.795,VALID,0,VALID,24.6879,VALID,101,VALID,0.316406,
2014-06-23, 01:48:04,VALID,1010.07,VALID,0,INVALID,110.779,VALID,0,VALID,24.6879,VALID,101,VALID,0.283203,
2014-06-23, 01:49:04,VALID,1010.09,VALID,0,INVALID,110.772,VALID,0,VALID,24.6879,VALID,101,VALID,0.271484,
2014-06-23, 01:50:04,VALID,1010.07,VALID,0,INVALID,110.779,VALID,0,VALID,24.7093,VALID,101,VALID,0.537109,
2014-06-23, 01:51:04,VALID,1010.06,VALID,0,INVALID,110.787,VALID,0,VALID,24.7074,VALID,101,VALID,0.340234,
2014-06-23, 01:52:04,VALID,1010.05,VALID,0,INVALID,110.795,VALID,0,VALID,24.6879,VALID,101,VALID,0.413281,
2014-06-23, 01:53:04,VALID,1010.07,VALID,0,INVALID,110.787,VALID,0,VALID,24.6684,VALID,101,VALID,0.340234,
2014-06-23, 01:54:04,VALID,1010.05,VALID,0,INVALID,110.81,VALID,0,VALID,24.6684,VALID,101,VALID,0.343359,
2014-06-23, 01:55:04,VALID,1010.05,VALID,0,INVALID,110.81,VALID,0,VALID,24.6684,VALID,101,VALID,0.376172,
2014-06-23, 01:56:04,VALID,1010.03,VALID,0,INVALID,110.81,VALID,0,VALID,24.6489,VALID,101,VALID,0,
2014-06-23, 01:57:04,VALID,1010.01,VALID,0,INVALID,110.825,VALID,0,VALID,24.6489,VALID,101,VALID,0,
2014-06-23, 01:58:04,VALID,1009.98,VALID,0,INVALID,110.84,VALID,0,VALID,24.6099,VALID,101,VALID,0.0835937,
2014-06-23, 01:59:04,VALID,1009.94,VALID,0,INVALID,110.825,VALID,0,VALID,24.5905,VALID,101,VALID,0.400391,
2014-06-23, 02:00:04,VALID,1009.96,VALID,0,INVALID,110.817,VALID,0,VALID,24.5905,VALID,101,VALID,0.440625,
2014-06-23, 02:01:04,VALID,1009.93,VALID,0,INVALID,110.848,VALID,0,VALID,24.5923,VALID,101,VALID,0.228516,
2014-06-23, 02:02:04,VALID,1009.94,VALID,0,INVALID,110.825,VALID,0,VALID,24.532,VALID,101,VALID,0.528906,
2014-06-23, 02:03:04,VALID,1009.9,VALID,0,INVALID,110.825,VALID,0,VALID,24.5515,VALID,101,VALID,0.607031,
2014-06-23, 02:04:04,VALID,1009.87,VALID,0,INVALID,110.749,VALID,0,VALID,24.571,VALID,84,VALID,1.4168,
2014-06-23, 02:05:04,VALID,1009.9,VALID,0,INVALID,110.749,VALID,0,VALID,24.5905,VALID,78,VALID,0.732031,
2014-06-23, 02:06:04,VALID,1009.87,VALID,0,INVALID,110.764,VALID,0,VALID,24.5905,VALID,78,VALID,0.8125,
2014-06-23, 02:07:04,VALID,1009.88,VALID,0,INVALID,110.741,VALID,0,VALID,24.6099,VALID,78,VALID,0.621484,
2014-06-23, 02:08:04,VALID,1009.86,VALID,0,INVALID,110.787,VALID,0,VALID,24.5905,VALID,78,VALID,0.408984,
2014-06-23, 02:09:04,VALID,1009.86,VALID,0,INVALID,110.795,VALID,0,VALID,24.5905,VALID,78,VALID,0.64375,
2014-06-23, 02:10:04,VALID,1009.9,VALID,0,INVALID,110.802,VALID,0,VALID,24.5905,VALID,78,VALID,0.272266,
2014-06-23, 02:11:04,VALID,1009.86,VALID,0,INVALID,110.795,VALID,0,VALID,24.6118,VALID,78,VALID,0.396484,
2014-06-23, 02:12:04,VALID,1009.9,VALID,0,INVALID,110.795,VALID,0,VALID,24.5905,VALID,78,VALID,0.163672,
2014-06-23, 02:13:04,VALID,1009.88,VALID,0,INVALID,110.825,VALID,0,VALID,24.5905,VALID,78,VALID,0.046875,
2014-06-23, 02:14:04,VALID,1009.88,VALID,0,INVALID,110.825,VALID,0,VALID,24.5905,VALID,78,VALID,0,
2014-06-23, 02:15:04,VALID,1009.88,VALID,0,INVALID,110.848,VALID,0,VALID,24.5905,VALID,78,VALID,0,
2014-06-23, 02:16:04,VALID,1009.86,VALID,0,INVALID,110.871,VALID,0,VALID,24.571,VALID,78,VALID,0,
2014-06-23, 02:17:04,VALID,1009.82,VALID,0,INVALID,110.848,VALID,0,VALID,24.5515,VALID,78,VALID,0,
2014-06-23, 02:18:04,VALID,1009.84,VALID,0,INVALID,110.886,VALID,0,VALID,24.532,VALID,78,VALID,0,
2014-06-23, 02:19:04,VALID,1009.78,VALID,0,INVALID,110.856,VALID,0,VALID,24.532,VALID,78,VALID,0,
2014-06-23, 02:20:04,VALID,1009.77,VALID,0,INVALID,110.871,VALID,0,VALID,24.5125,VALID,78,VALID,0,
2014-06-23, 02:21:04,VALID,1009.74,VALID,0,INVALID,110.863,VALID,0,VALID,24.493,VALID,78,VALID,0,
2014-06-23, 02:22:04,VALID,1009.72,VALID,0,INVALID,110.878,VALID,0,VALID,24.4735,VALID,78,VALID,0,
2014-06-23, 02:23:04,VALID,1009.7,VALID,0,INVALID,110.886,VALID,0,VALID,24.454,VALID,78,VALID,0.0796875,
2014-06-23, 02:24:04,VALID,1009.71,VALID,0,INVALID,110.894,VALID,0,VALID,24.4345,VALID,78,VALID,0.324219,
2014-06-23, 02:25:04,VALID,1009.71,VALID,0,INVALID,110.84,VALID,0,VALID,24.415,VALID,78,VALID,0.327344,
2014-06-23, 02:26:04,VALID,1009.71,VALID,0,INVALID,110.878,VALID,0,VALID,24.3974,VALID,78,VALID,0.360156,
2014-06-23, 02:27:04,VALID,1009.71,VALID,0,INVALID,110.901,VALID,0,VALID,24.3566,VALID,78,VALID,0.390234,
2014-06-23, 02:28:04,VALID,1009.71,VALID,0,INVALID,110.871,VALID,0,VALID,24.3371,VALID,78,VALID,0.497656,
2014-06-23, 02:29:04,VALID,1009.77,VALID,0,INVALID,110.848,VALID,0,VALID,24.3371,VALID,78,VALID,0.504687,
2014-06-23, 02:30:04,VALID,1009.77,VALID,0,INVALID,110.856,VALID,0,VALID,24.3371,VALID,78,VALID,0.465625,
2014-06-23, 02:31:04,VALID,1009.79,VALID,0,INVALID,110.825,VALID,0,VALID,24.3566,VALID,78,VALID,0.510547,
2014-06-23, 02:32:04,VALID,1009.79,VALID,0,INVALID,110.833,VALID,0,VALID,24.3371,VALID,78,VALID,0.4,
2014-06-23, 02:33:04,VALID,1009.82,VALID,0,INVALID,110.84,VALID,0,VALID,24.3176,VALID,78,VALID,0.39375,
2014-06-23, 02:34:04,VALID,1009.84,VALID,0,INVALID,110.833,VALID,0,VALID,24.2981,VALID,78,VALID,0.325391,
2014-06-23, 02:35:04,VALID,1009.84,VALID,0,INVALID,110.863,VALID,0,VALID,24.2786,VALID,78,VALID,0.197266,
2014-06-23, 02:36:04,VALID,1009.88,VALID,0,INVALID,110.856,VALID,0,VALID,24.2591,VALID,78,VALID,0.319531,
2014-06-23, 02:37:04,VALID,1009.9,VALID,0,INVALID,110.81,VALID,0,VALID,24.2396,VALID,78,VALID,0.3875,
2014-06-23, 02:38:04,VALID,1009.9,VALID,0,INVALID,110.81,VALID,0,VALID,24.2591,VALID,78,VALID,0.461719,
2014-06-23, 02:39:04,VALID,1009.92,VALID,0,INVALID,110.81,VALID,0,VALID,24.2202,VALID,78,VALID,0.175391,
2014-06-23, 02:40:04,VALID,1009.91,VALID,0,INVALID,110.772,VALID,0,VALID,24.261,VALID,78,VALID,0.257031,
2014-06-23, 02:41:04,VALID,1009.92,VALID,0,INVALID,110.817,VALID,0,VALID,24.2415,VALID,78,VALID,0.134766,
2014-06-23, 02:42:04,VALID,1009.92,VALID,0,INVALID,110.779,VALID,0,VALID,24.2007,VALID,78,VALID,0.223047,
2014-06-23, 02:43:04,VALID,1009.92,VALID,0,INVALID,110.802,VALID,0,VALID,24.2007,VALID,78,VALID,0.293359,
2014-06-23, 02:44:04,VALID,1009.92,VALID,0,INVALID,110.772,VALID,0,VALID,24.2007,VALID,78,VALID,0.000390625,
2014-06-23, 02:45:04,VALID,1009.93,VALID,0,INVALID,110.764,VALID,0,VALID,24.1812,VALID,78,VALID,0.0183594,
2014-06-23, 02:46:04,VALID,1009.98,VALID,0,INVALID,110.718,VALID,0,VALID,24.2007,VALID,78,VALID,0.280078,
2014-06-23, 02:47:04,VALID,1009.97,VALID,0,INVALID,110.741,VALID,0,VALID,24.2007,VALID,78,VALID,0.0835937,
2014-06-23, 02:48:04,VALID,1009.98,VALID,0,INVALID,110.734,VALID,0,VALID,24.2202,VALID,78,VALID,0.140234,
2014-06-23, 02:49:04,VALID,1010.01,VALID,0,INVALID,110.726,VALID,0,VALID,24.2202,VALID,78,VALID,0,
2014-06-23, 02:50:04,VALID,1009.98,VALID,0,INVALID,110.749,VALID,0,VALID,24.2007,VALID,78,VALID,0,
2014-06-23, 02:51:04,VALID,1010.04,VALID,0,INVALID,110.718,VALID,0,VALID,24.1812,VALID,78,VALID,0,
2014-06-23, 02:52:04,VALID,1010.03,VALID,0,INVALID,110.756,VALID,0,VALID,24.1617,VALID,78,VALID,0.00117188,
2014-06-23, 02:53:04,VALID,1010.07,VALID,0,INVALID,110.749,VALID,0,VALID,24.1617,VALID,78,VALID,0.0414063,
2014-06-23, 02:54:04,VALID,1010.06,VALID,0,INVALID,110.726,VALID,0,VALID,24.1617,VALID,78,VALID,0,
2014-06-23, 02:55:04,VALID,1010.03,VALID,0,INVALID,110.741,VALID,0,VALID,24.1617,VALID,78,VALID,0.00351562,
2014-06-23, 02:56:04,VALID,1010.06,VALID,0,INVALID,110.673,VALID,0,VALID,24.1635,VALID,78,VALID,0.483203,
2014-06-23, 02:57:04,VALID,1010.03,VALID,0,INVALID,110.665,VALID,0,VALID,24.1812,VALID,78,VALID,0.287109,
2014-06-23, 02:58:04,VALID,1010.04,VALID,0,INVALID,110.68,VALID,0,VALID,24.1812,VALID,78,VALID,0.0417969,
2014-06-23, 02:59:04,VALID,1010.04,VALID,0,INVALID,110.68,VALID,0,VALID,24.1617,VALID,78,VALID,0.0796875,
2014-06-23, 03:00:04,VALID,1010.02,VALID,0,INVALID,110.665,VALID,0,VALID,24.1812,VALID,78,VALID,0.271875,
2014-06-23, 03:01:04,VALID,1010.05,VALID,0,INVALID,110.634,VALID,0,VALID,24.1812,VALID,78,VALID,0.0207031,
2014-06-23, 03:02:04,VALID,1010.04,VALID,0,INVALID,110.65,VALID,0,VALID,24.2025,VALID,78,VALID,0,
2014-06-23, 03:03:04,VALID,1010.05,VALID,0,INVALID,110.619,VALID,0,VALID,24.1599,VALID,78,VALID,0,
2014-06-23, 03:04:04,VALID,1010.05,VALID,0,INVALID,110.604,VALID,0,VALID,24.1812,VALID,78,VALID,0.0046875,
2014-06-23, 03:05:04,VALID,1010.02,VALID,0,INVALID,110.642,VALID,0,VALID,24.1812,VALID,78,VALID,0,
2014-06-23, 03:06:04,VALID,1010.04,VALID,0,INVALID,110.604,VALID,0,VALID,24.1812,VALID,78,VALID,0.0046875,
2014-06-23, 03:07:04,VALID,1010.07,VALID,0,INVALID,110.612,VALID,0,VALID,24.2025,VALID,78,VALID,0.0625,
2014-06-23, 03:08:04,VALID,1010.04,VALID,0,INVALID,110.604,VALID,0.112112,VALID,24.1812,VALID,78,VALID,0,
2014-06-23, 03:09:04,VALID,1010.08,VALID,0,INVALID,110.619,VALID,0,VALID,24.1812,VALID,78,VALID,0,
2014-06-23, 03:10:04,VALID,1010.1,VALID,0,INVALID,110.573,VALID,0,VALID,24.1812,VALID,78,VALID,0,
2014-06-23, 03:11:04,VALID,1010.11,VALID,0,INVALID,110.573,VALID,0,VALID,24.1812,VALID,78,VALID,0,
2014-06-23, 03:12:04,VALID,1010.11,VALID,0,INVALID,110.558,VALID,0,VALID,24.222,VALID,78,VALID,0.515234,
2014-06-23, 03:13:04,VALID,1010.1,VALID,0,INVALID,110.535,VALID,0,VALID,24.2007,VALID,78,VALID,0.593359,
2014-06-23, 03:14:04,VALID,1010.11,VALID,0,INVALID,110.52,VALID,0,VALID,24.222,VALID,78,VALID,0.798828,
2014-06-23, 03:15:04,VALID,1010.11,VALID,0,INVALID,110.512,VALID,0,VALID,24.2202,VALID,78,VALID,0.427344,
2014-06-23, 03:16:04,VALID,1010.12,VALID,0,INVALID,110.551,VALID,0,VALID,24.2202,VALID,78,VALID,0.319141,
2014-06-23, 03:17:04,VALID,1010.12,VALID,0,INVALID,110.551,VALID,0,VALID,24.2007,VALID,78,VALID,0.282031,
2014-06-23, 03:18:04,VALID,1010.11,VALID,0,INVALID,110.573,VALID,0,VALID,24.2007,VALID,78,VALID,0.330078,
2014-06-23, 03:19:04,VALID,1010.13,VALID,0,INVALID,110.566,VALID,0,VALID,24.1812,VALID,78,VALID,0.489844,
2014-06-23, 03:20:04,VALID,1010.13,VALID,0,INVALID,110.535,VALID,0,VALID,24.1812,VALID,78,VALID,0.783594,
2014-06-23, 03:21:04,VALID,1010.13,VALID,0,INVALID,110.543,VALID,0,VALID,24.2007,VALID,78,VALID,0.728125,
2014-06-23, 03:22:04,VALID,1010.12,VALID,0,INVALID,110.558,VALID,0,VALID,24.1812,VALID,78,VALID,0.874219,
2014-06-23, 03:23:04,VALID,1010.11,VALID,0,INVALID,110.566,VALID,0,VALID,24.2025,VALID,78,VALID,1.28437,
2014-06-23, 03:24:04,VALID,1010.1,VALID,0,INVALID,110.551,VALID,0,VALID,24.2007,VALID,78,VALID,0.973828,
2014-06-23, 03:25:04,VALID,1010.14,VALID,0,INVALID,110.581,VALID,0,VALID,24.2007,VALID,78,VALID,0.405469,
2014-06-23, 03:26:04,VALID,1010.15,VALID,0,INVALID,110.573,VALID,0,VALID,24.2007,VALID,78,VALID,0.451562,
2014-06-23, 03:27:04,VALID,1010.14,VALID,0,INVALID,110.581,VALID,0,VALID,24.222,VALID,78,VALID,0.646875,
2014-06-23, 03:28:04,VALID,1010.11,VALID,0,INVALID,110.596,VALID,0,VALID,24.2025,VALID,78,VALID,0.596484,
2014-06-23, 03:29:04,VALID,1010.09,VALID,0,INVALID,110.573,VALID,0,VALID,24.2007,VALID,78,VALID,0.879687,
2014-06-23, 03:30:04,VALID,1010.08,VALID,0,INVALID,110.581,VALID,0,VALID,24.1793,VALID,78,VALID,0.375,
2014-06-23, 03:31:04,VALID,1010.08,VALID,0,INVALID,110.558,VALID,0,VALID,24.2007,VALID,78,VALID,0.677344,
2014-06-23, 03:32:04,VALID,1010.09,VALID,0,INVALID,110.52,VALID,0,VALID,24.2202,VALID,78,VALID,0.455078,
2014-06-23, 03:33:04,VALID,1010.07,VALID,0,INVALID,110.535,VALID,0,VALID,24.2396,VALID,78,VALID,0.432031,
2014-06-23, 03:34:04,VALID,1010.07,VALID,0,INVALID,110.528,VALID,0,VALID,24.2415,VALID,78,VALID,0.457422,
2014-06-23, 03:35:04,VALID,1010.08,VALID,0,INVALID,110.528,VALID,0,VALID,24.261,VALID,78,VALID,0.40625,
2014-06-23, 03:36:04,VALID,1010.05,VALID,0,INVALID,110.528,VALID,0,VALID,24.2591,VALID,78,VALID,0.0449219,
2014-06-23, 03:37:04,VALID,1010.07,VALID,0,INVALID,110.52,VALID,0,VALID,24.2396,VALID,78,VALID,0,
2014-06-23, 03:38:04,VALID,1010.07,VALID,0,INVALID,110.551,VALID,0,VALID,24.2396,VALID,78,VALID,0,
2014-06-23, 03:39:04,VALID,1010.09,VALID,0,INVALID,110.558,VALID,0,VALID,24.2396,VALID,78,VALID,0,
2014-06-23, 03:40:04,VALID,1010.09,VALID,0,INVALID,110.558,VALID,0,VALID,24.2202,VALID,78,VALID,0,
2014-06-23, 03:41:04,VALID,1010.07,VALID,0,INVALID,110.596,VALID,0,VALID,24.2202,VALID,78,VALID,0,
2014-06-23, 03:42:04,VALID,1010.09,VALID,0,INVALID,110.596,VALID,0,VALID,24.2415,VALID,78,VALID,0,
2014-06-23, 03:43:04,VALID,1010.09,VALID,0,INVALID,110.596,VALID,0,VALID,24.2396,VALID,78,VALID,0,
2014-06-23, 03:44:04,VALID,1010.09,VALID,0,INVALID,110.589,VALID,0,VALID,24.2396,VALID,78,VALID,0,
2014-06-23, 03:45:04,VALID,1010.05,VALID,0,INVALID,110.612,VALID,0,VALID,24.2591,VALID,78,VALID,0,
2014-06-23, 03:46:04,VALID,1010,VALID,0,INVALID,110.581,VALID,0,VALID,24.2591,VALID,78,VALID,0.0402344,